Flag for U.S.A. Weather past 2 weeks in Garland, Texas, U.S.A.

Now
54 °F

Clear.


Feels Like: 54 °F
Forecast: 57 / 80 °F
Wind: No wind

Location: Mesquite Metro Airport

Current Time: Oct 20, 2014 at 8:49:40 AM

Latest Report: Oct 20, 2014 at 7:50 AM


Visibility: 10 mi

Pressure: 30.09 "Hg

Humidity: 94%

Dew point: 52 °F

Location of GarlandLocation

Historic Weather in Garland — Graph

°F

Garland temperature yesterday

Maximum temperature yesterday: 75 °F (at 3:55 PM)
Minimum temperature yesterday: 54 °F (at 6:50 AM)
Average temperature yesterday: 62 °F

Past Weeks' High & Low Weather Summary

 TemperatureHumidityPressure
High93 °F (Oct 7, 3:50 PM)100% (Oct 12, 7:50 PM)30.19 "Hg (Oct 12, 7:50 PM)
Low46 °F (Oct 15, 7:50 AM)22% (Oct 14, 3:50 PM)29.59 "Hg (Oct 13, 2:35 AM)
Average68 °F73%29.95 "Hg
* Reported Oct 5 9:50 AM — Oct 20 7:50 AM, Garland, Weather by CustomWeather, © 2014

Note: Actual official high and low records may vary slightly from our data, if they occured in-between our weather recording intervals... More about our weather records

Advertising

Garland weather history for previous 24 hours

 ConditionsComfort  
Time TempWeatherWind HumidityBarometerVisibility
7:50 AM
Oct 20
54 °FClear.No wind94%30.09 "Hg10 mi
6:47 AM54 °FClear.No wind94%30.08 "Hg10 mi
5:35 AM54 °FClear.No wind94%30.07 "Hg10 mi
5:15 AM54 °FClear.No wind92%30.06 "Hg10 mi
4:55 AM54 °FClear.No wind90%30.05 "Hg10 mi
4:15 AM55 °FClear.No wind87%30.05 "Hg10 mi
3:55 AM56 °FClear.No wind87%30.05 "Hg10 mi
3:35 AM55 °FClear.No wind87%30.05 "Hg10 mi
3:15 AM56 °FClear.No wind84%30.05 "Hg10 mi
2:55 AM57 °FClear.3 mph81%30.05 "Hg10 mi
2:35 AM58 °FClear.3 mph80%30.05 "Hg10 mi
2:15 AM58 °FClear.5 mph79%30.05 "Hg10 mi
1:55 AM58 °FClear.6 mph78%30.05 "Hg10 mi
1:15 AM59 °FClear.3 mph78%30.05 "Hg10 mi
12:55 AM59 °FClear.3 mph76%30.06 "Hg10 mi
12:35 AM60 °FClear.5 mph76%30.06 "Hg10 mi
10:15 PM
Oct 19
60 °FClear.No wind78%30.08 "Hg10 mi
9:55 PM61 °FClear.No wind76%30.08 "Hg10 mi
7:50 PM66 °FClear.3 mph60%30.07 "Hg10 mi
6:50 PM70 °FSunny.5 mph60%30.07 "Hg10 mi
5:47 PM75 °FSunny.5 mph47%30.06 "Hg10 mi
4:47 PM75 °FSunny.No wind47%30.07 "Hg10 mi
3:55 PM75 °FSunny.7 mph47%30.07 "Hg10 mi
2:55 PM73 °FSunny.5 mph50%30.09 "Hg10 mi
1:50 PM73 °FSunny.6 mph47%30.13 "Hg10 mi
12:50 PM72 °FSunny.7 mph50%30.16 "Hg10 mi
11:55 AM70 °FSunny.8 mph53%30.18 "Hg10 mi
10:55 AM66 °FBroken clouds.5 mph60%30.19 "Hg10 mi
9:55 AM63 °FSunny.7 mph68%30.19 "Hg10 mi
8:50 AM57 °FSunny.6 mph88%30.18 "Hg10 mi
Weather by CustomWeather, © 2014

See weather overviewHow to use our weather pages